Year,Month,Day,Hour,Minute,Value (Times are PST for temperature in C)
2015,05,25,09,36,16.00
2015,05,25,09,37,16.00
2015,05,25,09,38,16.10
2015,05,25,09,39,16.20
2015,05,25,09,40,16.30
2015,05,25,09,41,16.50
2015,05,25,09,42,16.60
2015,05,25,09,43,16.70
2015,05,25,09,44,16.80
2015,05,25,09,45,16.90
2015,05,25,09,46,17.10
2015,05,25,09,47,17.20
2015,05,25,09,48,17.30
2015,05,25,09,49,17.40
2015,05,25,09,50,17.50
2015,05,25,09,51,17.50
2015,05,25,09,52,17.60
2015,05,25,09,53,17.60
2015,05,25,09,54,17.50
2015,05,25,09,55,17.50
2015,05,25,09,56,17.50
2015,05,25,09,57,17.60
2015,05,25,09,58,17.70
2015,05,25,09,59,17.70
2015,05,25,10,00,17.70
2015,05,25,10,01,17.80
2015,05,25,10,02,17.80
2015,05,25,10,03,17.80
2015,05,25,10,04,17.80
2015,05,25,10,05,17.80
2015,05,25,10,06,17.80
2015,05,25,10,07,17.70
2015,05,25,10,08,17.70
2015,05,25,10,09,17.60
2015,05,25,10,10,17.60
2015,05,25,10,11,17.60
2015,05,25,10,12,17.50
2015,05,25,10,13,17.50
2015,05,25,10,14,17.50
2015,05,25,10,15,17.50
2015,05,25,10,16,17.60
2015,05,25,10,17,17.60
2015,05,25,10,18,17.60
2015,05,25,10,19,17.70
2015,05,25,10,20,17.70
2015,05,25,10,21,17.70
2015,05,25,10,22,17.80
2015,05,25,10,23,17.80
2015,05,25,10,24,17.80
2015,05,25,10,25,17.90
2015,05,25,10,26,17.90
2015,05,25,10,27,17.90
2015,05,25,10,28,17.90
2015,05,25,10,29,17.80
2015,05,25,10,30,17.80
2015,05,25,10,31,17.80
2015,05,25,10,32,17.70
2015,05,25,10,33,17.80
2015,05,25,10,34,17.80
2015,05,25,10,35,17.80
2015,05,25,10,36,17.90
2015,05,25,10,37,17.90
2015,05,25,10,38,17.90
2015,05,25,10,39,17.90
2015,05,25,10,40,17.90
2015,05,25,10,41,18.00
2015,05,25,10,42,18.00
2015,05,25,10,43,18.10
2015,05,25,10,44,18.10
2015,05,25,10,45,18.20
2015,05,25,10,46,18.20
2015,05,25,10,47,18.10
2015,05,25,10,48,18.10
2015,05,25,10,49,18.20
2015,05,25,10,50,18.20
2015,05,25,10,51,18.20
2015,05,25,10,52,18.00
2015,05,25,10,53,17.90
2015,05,25,10,54,18.00
2015,05,25,10,55,18.00
2015,05,25,10,56,18.00
2015,05,25,10,57,18.00
2015,05,25,10,58,17.90
2015,05,25,10,59,17.80
2015,05,25,11,00,17.70
2015,05,25,11,01,17.70
2015,05,25,11,02,17.60
2015,05,25,11,03,17.60
2015,05,25,11,04,17.70
2015,05,25,11,05,17.90
2015,05,25,11,06,18.00
2015,05,25,11,07,18.00
2015,05,25,11,08,18.10
2015,05,25,11,09,18.20
2015,05,25,11,10,18.30
2015,05,25,11,11,18.40
2015,05,25,11,12,18.60
2015,05,25,11,13,18.70
2015,05,25,11,14,18.70
2015,05,25,11,15,18.80
2015,05,25,11,16,18.90
2015,05,25,11,17,19.00
2015,05,25,11,18,19.00
2015,05,25,11,19,19.10
2015,05,25,11,20,19.10
2015,05,25,11,21,19.00
2015,05,25,11,22,19.00
2015,05,25,11,23,19.00
2015,05,25,11,24,19.10
2015,05,25,11,25,19.00
2015,05,25,11,26,19.00
2015,05,25,11,27,19.00
2015,05,25,11,28,19.00
2015,05,25,11,29,18.90
2015,05,25,11,30,18.80
2015,05,25,11,31,18.70
2015,05,25,11,32,18.70
2015,05,25,11,33,18.80
2015,05,25,11,34,18.80
2015,05,25,11,35,18.80
2015,05,25,11,36,18.80
2015,05,25,11,37,18.80
2015,05,25,11,38,18.80
2015,05,25,11,39,18.80
2015,05,25,11,40,18.80
2015,05,25,11,41,18.80
2015,05,25,11,42,18.70
2015,05,25,11,43,18.60
2015,05,25,11,44,18.50
2015,05,25,11,45,18.40
2015,05,25,11,46,18.40
2015,05,25,11,47,18.30
2015,05,25,11,48,18.20
2015,05,25,11,49,18.20
2015,05,25,11,50,18.20
2015,05,25,11,51,18.10
2015,05,25,11,52,18.10
2015,05,25,11,53,18.20
2015,05,25,11,54,18.20
2015,05,25,11,55,18.30
2015,05,25,11,56,18.30
2015,05,25,11,57,18.50
2015,05,25,11,58,18.70
2015,05,25,11,59,18.80
2015,05,25,12,00,18.90
2015,05,25,12,01,19.00
2015,05,25,12,02,19.20
2015,05,25,12,03,19.30
2015,05,25,12,04,19.30
2015,05,25,12,05,19.30
2015,05,25,12,06,19.30
2015,05,25,12,07,19.20
2015,05,25,12,08,19.00
2015,05,25,12,09,18.90
2015,05,25,12,10,18.90
2015,05,25,12,11,18.90
2015,05,25,12,12,18.90
2015,05,25,12,13,18.90
2015,05,25,12,14,18.90
2015,05,25,12,15,18.90
2015,05,25,12,16,19.00
2015,05,25,12,17,19.00
2015,05,25,12,18,19.10
2015,05,25,12,19,19.10
2015,05,25,12,20,19.10
2015,05,25,12,21,19.10
2015,05,25,12,22,19.10
2015,05,25,12,23,19.20
2015,05,25,12,24,19.20
2015,05,25,12,25,19.20
2015,05,25,12,26,19.20
2015,05,25,12,27,19.30
2015,05,25,12,28,19.50
2015,05,25,12,29,19.60
2015,05,25,12,30,19.80
2015,05,25,12,31,19.80
2015,05,25,12,32,19.80
2015,05,25,12,33,19.90
2015,05,25,12,34,19.90
2015,05,25,12,35,19.90
2015,05,25,12,36,19.90
2015,05,25,12,37,19.90
2015,05,25,12,38,19.90
2015,05,25,12,39,19.90
2015,05,25,12,40,19.90
2015,05,25,12,41,19.80
2015,05,25,12,42,19.80
2015,05,25,12,43,19.70
2015,05,25,12,44,19.60
2015,05,25,12,45,19.60
2015,05,25,12,46,19.50
2015,05,25,12,47,19.40
2015,05,25,12,48,19.40
2015,05,25,12,49,19.50
2015,05,25,12,50,19.50
2015,05,25,12,51,19.70
2015,05,25,12,52,19.70
2015,05,25,12,53,19.50
2015,05,25,12,54,19.40
2015,05,25,12,55,19.40
2015,05,25,12,56,19.40
2015,05,25,12,57,19.40
2015,05,25,12,58,19.40
2015,05,25,12,59,19.40
2015,05,25,13,00,19.40
2015,05,25,13,01,19.30
2015,05,25,13,02,19.30
2015,05,25,13,03,19.20
2015,05,25,13,04,19.10
2015,05,25,13,05,19.10
2015,05,25,13,06,19.10
2015,05,25,13,07,19.10
2015,05,25,13,08,19.10
2015,05,25,13,09,19.10
2015,05,25,13,10,19.20
2015,05,25,13,11,19.20
2015,05,25,13,12,19.20
2015,05,25,13,13,19.30
2015,05,25,13,14,19.30
2015,05,25,13,15,19.30
2015,05,25,13,16,19.20
2015,05,25,13,17,19.10
2015,05,25,13,18,19.00
2015,05,25,13,19,18.80
2015,05,25,13,20,18.70
2015,05,25,13,21,18.60
2015,05,25,13,22,18.50
2015,05,25,13,23,18.50
2015,05,25,13,24,18.60
2015,05,25,13,25,18.60
2015,05,25,13,26,18.60
2015,05,25,13,27,18.60
2015,05,25,13,28,18.70
2015,05,25,13,29,18.70
2015,05,25,13,30,18.70
2015,05,25,13,31,18.70
2015,05,25,13,32,18.60
2015,05,25,13,33,18.30
2015,05,25,13,34,18.10
2015,05,25,13,35,17.90
2015,05,25,13,36,17.80
2015,05,25,13,37,17.70
2015,05,25,13,38,17.60
2015,05,25,13,39,17.50
2015,05,25,13,40,17.30
2015,05,25,13,41,17.30
2015,05,25,13,42,17.30
2015,05,25,13,43,17.40
2015,05,25,13,44,17.50
2015,05,25,13,45,17.70
2015,05,25,13,46,17.80
2015,05,25,13,47,17.80
2015,05,25,13,48,17.90
2015,05,25,13,49,17.90
2015,05,25,13,50,17.90
2015,05,25,13,51,17.90
2015,05,25,13,52,17.80
2015,05,25,13,53,17.70
2015,05,25,13,54,17.60
2015,05,25,13,55,17.60
2015,05,25,13,56,17.60
2015,05,25,13,57,17.60
2015,05,25,13,58,17.60
2015,05,25,13,59,17.60
2015,05,25,14,00,17.60
2015,05,25,14,01,17.60
2015,05,25,14,02,17.70
2015,05,25,14,03,17.70
2015,05,25,14,04,17.70
2015,05,25,14,05,17.70
2015,05,25,14,06,17.70
2015,05,25,14,07,17.80
2015,05,25,14,08,17.80
2015,05,25,14,09,17.80
2015,05,25,14,10,17.80
2015,05,25,14,11,17.70
2015,05,25,14,12,17.70
2015,05,25,14,13,17.70
2015,05,25,14,14,17.80
2015,05,25,14,15,17.80
2015,05,25,14,16,17.80
2015,05,25,14,17,17.80
2015,05,25,14,18,17.70
2015,05,25,14,19,17.60
2015,05,25,14,20,17.60
2015,05,25,14,21,17.60
2015,05,25,14,22,17.60
2015,05,25,14,23,17.60
2015,05,25,14,24,17.50
2015,05,25,14,25,17.50
2015,05,25,14,26,17.50
2015,05,25,14,27,17.60
2015,05,25,14,28,17.70
2015,05,25,14,29,17.70
2015,05,25,14,30,17.80
2015,05,25,14,31,17.70
2015,05,25,14,32,17.80
2015,05,25,14,33,17.80
2015,05,25,14,34,17.80
2015,05,25,14,35,17.90
2015,05,25,14,36,17.90
2015,05,25,14,37,17.90
2015,05,25,14,38,17.90
2015,05,25,14,39,17.90
2015,05,25,14,40,18.00
2015,05,25,14,41,18.10
2015,05,25,14,42,18.20
2015,05,25,14,43,18.30
2015,05,25,14,44,18.30
2015,05,25,14,45,18.30
2015,05,25,14,46,18.30
2015,05,25,14,47,18.30
2015,05,25,14,48,18.30
2015,05,25,14,49,18.40
2015,05,25,14,50,18.40
2015,05,25,14,51,18.50
2015,05,25,14,52,18.60
2015,05,25,14,53,18.70
2015,05,25,14,54,18.70
2015,05,25,14,55,18.70
2015,05,25,14,56,18.70
2015,05,25,14,57,18.70
2015,05,25,14,58,18.80
2015,05,25,14,59,18.80
2015,05,25,15,00,18.90
2015,05,25,15,01,18.90
2015,05,25,15,02,18.90
2015,05,25,15,03,18.80
2015,05,25,15,04,18.80
2015,05,25,15,05,18.70
2015,05,25,15,06,18.60
2015,05,25,15,07,18.50
2015,05,25,15,08,18.40
2015,05,25,15,09,18.40
2015,05,25,15,10,18.40
2015,05,25,15,11,18.50
2015,05,25,15,12,18.60
2015,05,25,15,13,18.80
2015,05,25,15,14,18.80
2015,05,25,15,15,18.90
2015,05,25,15,16,18.90
2015,05,25,15,17,18.80
2015,05,25,15,18,18.70
2015,05,25,15,19,18.60
2015,05,25,15,20,18.60
2015,05,25,15,21,18.60
2015,05,25,15,22,18.60
2015,05,25,15,23,18.70
2015,05,25,15,24,18.70
2015,05,25,15,25,18.70
2015,05,25,15,26,18.70
2015,05,25,15,27,18.80
2015,05,25,15,28,18.80
2015,05,25,15,29,18.90
2015,05,25,15,30,18.90
2015,05,25,15,31,18.90
2015,05,25,15,32,18.80
2015,05,25,15,33,18.80
2015,05,25,15,34,18.80
2015,05,25,15,35,18.70
2015,05,25,15,36,18.60
2015,05,25,15,37,18.60
2015,05,25,15,38,18.60
2015,05,25,15,39,18.50
2015,05,25,15,40,18.50
2015,05,25,15,41,18.60
2015,05,25,15,42,18.60
2015,05,25,15,43,18.60
2015,05,25,15,44,18.70
2015,05,25,15,45,18.60
2015,05,25,15,46,18.60
2015,05,25,15,47,18.50
2015,05,25,15,48,18.30
2015,05,25,15,49,18.10
2015,05,25,15,50,17.90
2015,05,25,15,51,17.80
2015,05,25,15,52,17.70
2015,05,25,15,53,17.70
2015,05,25,15,54,17.80
2015,05,25,15,55,17.80
2015,05,25,15,56,17.90
2015,05,25,15,57,18.00
2015,05,25,15,58,18.10
2015,05,25,15,59,18.20
2015,05,25,16,00,18.30
2015,05,25,16,01,18.30
2015,05,25,16,02,18.30
2015,05,25,16,03,18.30
2015,05,25,16,04,18.30
2015,05,25,16,05,18.40
2015,05,25,16,06,18.30
2015,05,25,16,07,18.30
2015,05,25,16,08,18.10
2015,05,25,16,09,18.00
2015,05,25,16,10,18.00
2015,05,25,16,11,18.00
2015,05,25,16,12,18.10
2015,05,25,16,13,18.10
2015,05,25,16,14,18.20
2015,05,25,16,15,18.20
2015,05,25,16,16,18.30
2015,05,25,16,17,18.30
2015,05,25,16,18,18.40
2015,05,25,16,19,18.50
2015,05,25,16,20,18.60
2015,05,25,16,21,18.70
2015,05,25,16,22,18.70
2015,05,25,16,23,18.70
2015,05,25,16,24,18.60
2015,05,25,16,25,18.50
2015,05,25,16,26,18.40
2015,05,25,16,27,18.40
2015,05,25,16,28,18.30
2015,05,25,16,29,18.30
2015,05,25,16,30,18.30
2015,05,25,16,31,18.40
2015,05,25,16,32,18.40
2015,05,25,16,33,18.50
2015,05,25,16,34,18.50
2015,05,25,16,35,18.50
2015,05,25,16,36,18.60
2015,05,25,16,37,18.80
2015,05,25,16,38,18.80
2015,05,25,16,39,18.90
2015,05,25,16,40,19.00
2015,05,25,16,41,19.10
2015,05,25,16,42,19.10
2015,05,25,16,43,19.00
2015,05,25,16,44,18.90
2015,05,25,16,45,18.80
2015,05,25,16,46,18.70
2015,05,25,16,47,18.60
2015,05,25,16,48,18.60
2015,05,25,16,49,18.60
2015,05,25,16,50,18.70
2015,05,25,16,51,18.80
2015,05,25,16,52,18.90
2015,05,25,16,53,19.00
2015,05,25,16,54,19.00
2015,05,25,16,55,19.00
2015,05,25,16,56,19.00
2015,05,25,16,57,18.90
2015,05,25,16,58,18.90
2015,05,25,16,59,18.90
2015,05,25,17,00,18.80
2015,05,25,17,01,18.60
2015,05,25,17,02,18.50
2015,05,25,17,03,18.60
2015,05,25,17,04,18.60
2015,05,25,17,05,18.70
2015,05,25,17,06,18.80
2015,05,25,17,07,18.90
2015,05,25,17,08,19.00
2015,05,25,17,09,19.00
2015,05,25,17,10,19.00
2015,05,25,17,11,19.00
2015,05,25,17,12,19.00
2015,05,25,17,13,19.00
2015,05,25,17,14,19.10
2015,05,25,17,15,19.10
2015,05,25,17,16,19.20
2015,05,25,17,17,19.30
2015,05,25,17,18,19.30
2015,05,25,17,19,19.40
2015,05,25,17,20,19.40
2015,05,25,17,21,19.50
2015,05,25,17,22,19.50
2015,05,25,17,23,19.60
2015,05,25,17,24,19.60
2015,05,25,17,25,19.60
2015,05,25,17,26,19.60
2015,05,25,17,27,19.50
2015,05,25,17,28,19.30
2015,05,25,17,29,19.10
2015,05,25,17,30,18.90
2015,05,25,17,31,18.80
2015,05,25,17,32,18.80
2015,05,25,17,33,18.70
2015,05,25,17,34,18.70
2015,05,25,17,35,18.70
2015,05,25,17,36,18.70
2015,05,25,17,37,18.60
2015,05,25,17,38,18.70
2015,05,25,17,39,18.70
2015,05,25,17,40,18.60
2015,05,25,17,41,18.60
2015,05,25,17,42,18.70
2015,05,25,17,43,18.70
2015,05,25,17,44,18.80
2015,05,25,17,45,18.80
2015,05,25,17,46,18.80
2015,05,25,17,47,18.80
2015,05,25,17,48,18.80
2015,05,25,17,49,18.70
2015,05,25,17,50,18.70
2015,05,25,17,51,18.70
2015,05,25,17,52,18.80
2015,05,25,17,53,18.90
2015,05,25,17,54,18.80
2015,05,25,17,55,18.80
2015,05,25,17,56,18.80
2015,05,25,17,57,18.80
2015,05,25,17,58,18.80
2015,05,25,17,59,18.80
2015,05,25,18,00,18.80
2015,05,25,18,01,18.80
2015,05,25,18,02,18.70
2015,05,25,18,03,18.70
2015,05,25,18,04,18.70
2015,05,25,18,05,18.60
2015,05,25,18,06,18.60
2015,05,25,18,07,18.60
2015,05,25,18,08,18.50
2015,05,25,18,09,18.60
2015,05,25,18,10,18.60
2015,05,25,18,11,18.60
2015,05,25,18,12,18.60
2015,05,25,18,13,18.50
2015,05,25,18,14,18.50
2015,05,25,18,15,18.40
2015,05,25,18,16,18.40
2015,05,25,18,17,18.30
2015,05,25,18,18,18.30
2015,05,25,18,19,18.20
2015,05,25,18,20,18.20
2015,05,25,18,21,18.20
2015,05,25,18,22,18.30
2015,05,25,18,23,18.30
2015,05,25,18,24,18.40
2015,05,25,18,25,18.40
2015,05,25,18,26,18.30
2015,05,25,18,27,18.30
2015,05,25,18,28,18.20
2015,05,25,18,29,18.10
2015,05,25,18,30,18.10
2015,05,25,18,31,18.10
2015,05,25,18,32,18.20
2015,05,25,18,33,18.20
2015,05,25,18,34,18.30
2015,05,25,18,35,18.30
2015,05,25,18,36,18.30
2015,05,25,18,37,18.30
2015,05,25,18,38,18.30
2015,05,25,18,39,18.40
2015,05,25,18,40,18.40
2015,05,25,18,41,18.50
2015,05,25,18,42,18.50
2015,05,25,18,43,18.50
2015,05,25,18,44,18.50
2015,05,25,18,45,18.50
2015,05,25,18,46,18.60
2015,05,25,18,47,18.60
2015,05,25,18,48,18.60
2015,05,25,18,49,18.60
2015,05,25,18,50,18.50
2015,05,25,18,51,18.40
2015,05,25,18,52,18.40
2015,05,25,18,53,18.40
2015,05,25,18,54,18.30
2015,05,25,18,55,18.20
2015,05,25,18,56,18.10
2015,05,25,18,57,18.00
2015,05,25,18,58,18.00
2015,05,25,18,59,17.90
2015,05,25,19,00,17.90
2015,05,25,19,01,17.80
2015,05,25,19,02,17.80
2015,05,25,19,03,17.80
2015,05,25,19,04,17.80
2015,05,25,19,05,17.80
2015,05,25,19,06,17.90
2015,05,25,19,07,17.90
2015,05,25,19,08,17.90
2015,05,25,19,09,17.80
2015,05,25,19,10,17.80
2015,05,25,19,11,17.70
2015,05,25,19,12,17.70
2015,05,25,19,13,17.70
2015,05,25,19,14,17.60
2015,05,25,19,15,17.60
2015,05,25,19,16,17.50
2015,05,25,19,17,17.50
2015,05,25,19,18,17.40
2015,05,25,19,19,17.40
2015,05,25,19,20,17.40
2015,05,25,19,21,17.30
2015,05,25,19,22,17.30
2015,05,25,19,23,17.30
2015,05,25,19,24,17.30
2015,05,25,19,25,17.20
2015,05,25,19,26,17.20
2015,05,25,19,27,17.20
2015,05,25,19,28,17.20
2015,05,25,19,29,17.20
2015,05,25,19,30,17.10
2015,05,25,19,31,17.10
2015,05,25,19,32,17.10
2015,05,25,19,33,17.10
2015,05,25,19,34,17.00
2015,05,25,19,35,17.00
2015,05,25,19,36,17.00
2015,05,25,19,37,17.00
2015,05,25,19,38,17.00
2015,05,25,19,39,17.00
2015,05,25,19,40,17.00
2015,05,25,19,41,17.00
2015,05,25,19,42,17.00
2015,05,25,19,43,16.90
2015,05,25,19,44,16.90
2015,05,25,19,45,16.90
2015,05,25,19,46,16.90
2015,05,25,19,47,16.90
2015,05,25,19,48,16.90
2015,05,25,19,49,16.90
2015,05,25,19,50,16.80
2015,05,25,19,51,16.80
2015,05,25,19,52,16.80
2015,05,25,19,53,16.80
2015,05,25,19,54,16.80
2015,05,25,19,55,16.80
2015,05,25,19,56,16.70
2015,05,25,19,57,16.70
2015,05,25,19,58,16.70
2015,05,25,19,59,16.70
2015,05,25,20,00,16.70
2015,05,25,20,01,16.70
2015,05,25,20,02,16.70
2015,05,25,20,03,16.60
2015,05,25,20,04,16.60
2015,05,25,20,05,16.60
2015,05,25,20,06,16.60
2015,05,25,20,07,16.50
2015,05,25,20,08,16.50
2015,05,25,20,09,16.50
2015,05,25,20,10,16.50
2015,05,25,20,11,16.40
2015,05,25,20,12,16.40
2015,05,25,20,13,16.40
2015,05,25,20,14,16.40
2015,05,25,20,15,16.30
2015,05,25,20,16,16.30
2015,05,25,20,17,16.30
2015,05,25,20,18,16.30
2015,05,25,20,19,16.30
2015,05,25,20,20,16.30
2015,05,25,20,21,16.20
2015,05,25,20,22,16.20
2015,05,25,20,23,16.20
2015,05,25,20,24,16.20
2015,05,25,20,25,16.20
2015,05,25,20,26,16.20
2015,05,25,20,27,16.20
2015,05,25,20,28,16.20
2015,05,25,20,29,16.20
2015,05,25,20,30,16.20
2015,05,25,20,31,16.20
2015,05,25,20,32,16.20
